Regional Weather Roundup
Issued by NWS

Home | Current Version | Previous Version | Graphics & Text | Print | Product List | Glossary On
Versions: 1 2 3 4 5 6 7 8 9 10 11 12 13 14 15 16 17 18 19 20 21 22 23 24 25 26 27 28 29 30 31 32 33 34 35 36 37 38 39 40 41 42 43 44 45 46 47 48 49 50
000
ASUS43 KLOT 280902
RWRIL

ILLINOIS REGIONAL WEATHER ROUNDUP
NATIONAL WEATHER SERVICE CHICAGO/ROMEOVILLE IL
400 AM CDT SAT MAR 28 2015

NOTE: "FAIR" INDICATES FEW OR NO CLOUDS BELOW 12,000 FEET WITH NO
SIGNIFICANT WEATHER AND/OR OBSTRUCTIONS TO VISIBILITY.

* THESE STATIONS ARE NOT UNDER NWS QUALITY CONTROL. THEY ALSO MAY NOT
  REPORT WEATHER SUCH AS PRECIPITATION OR FOG.

ILZ001-002-007-009-015-016-024-281000-
NORTHWEST ILLINOIS

CITY           SKY/WX    TMP DP  RH WIND       PRES   REMARKS
MOLINE         PTCLDY    20  12  71 E6        30.22R WCI  12
STERLING*      CLEAR     19  14  79 E3        30.23S
$$

ILZ003-004-008-010-011-017-018-281000-
NORTH CENTRAL ILLINOIS

CITY           SKY/WX    TMP DP  RH WIND       PRES   REMARKS
ROCKFORD       CLEAR     19  12  74 CALM      30.25S
FREEPORT*      CLEAR     15  11  84 CALM      30.24S
$$

ILZ005-006-012>014-019>023-281000-
NORTHEAST ILLINOIS

CITY           SKY/WX    TMP DP  RH WIND       PRES   REMARKS
CHICAGO-OHARE  PTCLDY    21  13  71 N6        30.22S WCI  13
CHICAGO-MIDWAY FAIR      23  13  65 NW6       30.22S WCI  16
AURORA         CLEAR     15  10  80 W6        30.23S WCI   6
WAUKEGAN       CLEAR     16  13  88 CALM      30.22S
DUPAGE AIRPORT CLEAR     17  11  77 CALM      30.22S
WHEELING       CLEAR     19  12  74 CALM      30.24S
NORTHERLY ISL    N/A     25  11  55 N9          N/A  WCI  16
$$

LMZ740>746-281000-
SOUTHERN LAKE MICHIGAN

STATION/POSITION SKY/WX   TEMP    WIND        PRES    VSBY  WAVE
                          AIR SEA DIR/SP/G                  HT/PER
                          (F)     (DEG/KT/KT) (MB)    (MI)  (FT/S)
HARRISON CRIB              25      20/ 14/ 17   N/A
BURNHAM HARBOR             26      30/ 11/ 14   N/A
CALUMET HARBOR             26     360/ 11/ 14 1022.0F
BURNS HARBOR               25      30/ 13/ 17 1023.4R
MICHIGAN CITY              22      20/ 12/ 14   N/A
$$

ILZ025>027-034>036-040-047-049-050-058-095>099-281000-
WEST-CENTRAL ILLINOIS

CITY           SKY/WX    TMP DP  RH WIND       PRES   REMARKS
QUINCY         PTCLDY    26  15  63 SE6       30.18S WCI  19
$$

ILZ028>032-037-038-041>044-048-051>054-059>061-281000-
CENTRAL ILLINOIS

CITY           SKY/WX    TMP DP  RH WIND       PRES   REMARKS
DECATUR        CLEAR     20  15  81 E7        30.22S WCI  11
PEORIA         CLEAR     23  14  68 E3        30.23S
LINCOLN*       CLEAR     23  19  84 CALM      30.24S
SPRINGFIELD    CLEAR     24  18  77 E7        30.22S WCI  16
TAYLORVILLE    NOT AVBL
$$

ILZ033-039-045-046-055>057-062-063-281000-
EAST-CENTRAL ILLINOIS

CITY           SKY/WX    TMP DP  RH WIND       PRES   REMARKS
CHAMPAIGN      CLEAR     20  14  77 CALM      30.21S
MATTOON        CLEAR     21  15  78 NE6       30.20S WCI  13
$$

ILZ079-100>102-281000-
SOUTHWEST ILLINOIS

CITY           SKY/WX    TMP DP  RH WIND       PRES   REMARKS
BELLEVILLE     CLEAR     26  21  79 CALM      30.20S
CAHOKIA*       CLEAR     27  23  85 CALM      30.21S
SPARTA*        CLEAR     26  22  84 CALM      30.21S
$$

ILZ064>066-069>071-074>076-080>082-084>086-088>090-092>094-281000-
SOUTH-CENTRAL ILLINOIS

CITY           SKY/WX    TMP DP  RH WIND       PRES   REMARKS
CARBONDALE     CLEAR     25  20  81 CALM      30.20S
MT. VERNON     PTCLDY    21  18  86 CALM      30.20S
SALEM*         CLEAR     28  20  71 NE3       30.21S
$$

ILZ067-068-072-073-078-083-087-091-281000-
SOUTHEAST ILLINOIS

CITY           SKY/WX    TMP DP  RH WIND       PRES   REMARKS
LAWRENCEVILLE  CLEAR     25  15  66 N10       30.22S WCI  15
ROBINSON*      CLEAR     22  17  81 N6        30.22F WCI  15
$$

ABBREVIATIONS USED IN REMARKS
   TC - TEMPERATURE IN CELSIUS
  WCI - WIND CHILL INDEX
   HX - HEAT INDEX
  VSB - VISIBILITY
$$



USA.gov is the U.S. government's official web portal to all federal, state and local government web resources and services.